{"data":{"norad_id":46171,"intl_designator":"2020-057BG","name":"STARLINK-1633","alt_names":[],"object_type":"PAYLOAD","status":"ACTIVE","operator":null,"country":"US","launch_date":"2020-08-18","launch_site_code":"AFETR","launch_vehicle":null,"mission":null,"orbit_class":"UNKNOWN","rcs_meters":null,"size_class":null,"mass_kg":null,"dimensions":null,"purposes":["comms"],"wikipedia_slug":null,"has_3d_model":false,"image_url":null,"decayed_at":null,"tle_current":{"epoch":"2026-07-27T14:18:26.993664Z","epoch_age_seconds":4765709,"freshness":"OLD","line1":"1 46171U 20057BG  26208.59614576  .10730462  12557-4  31971-3 0  9995","line2":"2 46171  53.0101 277.1963 0006424 304.3072  55.7367 16.44797188330241","mean_motion":16.44797188,"eccentricity":0.0006424,"inclination_deg":53.0101,"raan_deg":277.1963,"arg_perigee_deg":304.3072,"mean_anomaly_deg":55.7367,"bstar":0.00031971,"rev_number":33024,"period_min":87.54878780836,"perigee_km":148.8767011354,"apogee_km":157.26799890831,"semimajor_km":6531.2093500219,"source":"CELESTRAK","updated_at":"2026-07-28T09:01:44.325795Z"}}}